Regional Weather Roundup
Issued by NWS Mt. Holly, NJ

Home | Current Version | Previous Version | Text Only | Print | Product List | Glossary On
Versions: 1 2 3 4 5 6 7 8 9 10 11 12 13 14 15 16 17 18 19 20 21 22 23 24 25 26 27 28 29 30 31 32 33 34 35 36 37 38 39 40 41 42 43 44 45 46 47 48 49 50
000
ASUS41 KPHI 130212
RWRPHI

REGIONAL WEATHER ROUNDUP
NATIONAL WEATHER SERVICE MOUNT HOLLY NJ
900 PM EST FRI FEB 12 2016

NOTE:  "FAIR" INDICATES FEW OR NO CLOUDS BELOW 12,000 FEET WITH NO
SIGNIFICANT WEATHER AND/OR OBSTRUCTIONS TO VISIBILITY.

 * = STATION DOES NOT REPORT PRECIPITATION (E.G. RAIN, SNOW, ETC.)
        OR FOG.

NJZ015>026-130300-
SOUTHERN NEW JERSEY

CITY           SKY/WX    TMP DP  RH WIND       PRES   REMARKS
POMONA         FLURRIES  22  14  71 NW5       30.00F WCI  16
WILDWOOD*      CLOUDY    21  18  86 CALM      30.01F
MILLVILLE      LGT SNOW  22  19  89 CALM      30.00F FOG
WRIGHTSTOWN    CLOUDY    19  19 100 W6        29.96F WCI  11
TRENTON        CLOUDY    20  13  74 SW5       29.98F WCI  13

$$
NJZ001>014-130300-
NORTHERN NEW JERSEY

CITY           SKY/WX    TMP DP  RH WIND       PRES   REMARKS
SUSSEX         CLOUDY    20   6  55 SW5       29.92F WCI  13
ANDOVER*         N/A     19   5  54 SW5       29.93F WCI  12
MORRISTOWN     MOCLDY    21   7  53 W6        29.97F WCI  14
NEWARK         CLOUDY    23   7  50 SW10      29.98F WCI  12
TETERBORO      CLOUDY    23   3  42 W10       29.97F WCI  12
CALDWELL       CLOUDY    22   3  44 W3        29.96F
SOMERVILLE     CLOUDY    21   8  57 CALM      29.96F
ALLAIRE*       CLOUDY    21   9  58 W7        29.97F WCI  13
TOMS RIVER*    CLOUDY    21  12  68 W6        30.00F WCI  14

$$
PAZ043-044-047-054-055-060>062-066>071-130300-
EASTERN PENNSYLVANIA

CITY           SKY/WX    TMP DP  RH WIND       PRES   REMARKS
PHILADELPHIA   NOT AVBL
NORTH PHILA    CLOUDY    22  17  81 CALM      30.01F
BLUE BELL*       N/A     21  12  68 SW3       29.97F
DOYLESTOWN     CLOUDY    19   9  65 SW5       29.96F WCI  12
QUAKERTOWN*    CLOUDY    19  10  68 CALM      29.95F
PERKASIE*      CLOUDY    19   9  63 CALM      29.96F
POTTSTOWN      CLOUDY    20  11  68 CALM      29.98F
LANCASTER      LGT SNOW  20  15  81 SW5       29.97F WCI  13
COATESVILLE    CLOUDY    18  16  93 CALM      29.96F
READING        LGT SNOW  20  13  74 W6        29.97F WCI  12
ALLENTOWN      CLOUDY    20   8  60 W9        29.96F WCI   9
MOUNT POCONO   LGT SNOW  12   5  73 W10       29.81F WCI  -1
HAZLETON       LGT SNOW  16  10  79 MISG      29.87F
LEHIGHTON      FLURRIES  21  12  68 W3        29.96S
WILKES BARRE   LGT SNOW  17   8  67 SW10      29.88F WCI   5

$$
DEZALL-MDZ008-012-015-019-020-130300-
DELAWARE AND EASTERN MARYLAND

CITY           SKY/WX    TMP DP  RH WIND       PRES   REMARKS
WILMINGTON     CLOUDY    22  16  78 SW6       30.01F WCI  14
DOVER          CLEAR     23  21  94 NW2       30.00F
GEORGETOWN     LGT SNOW  23  21  92 CALM      30.01F FOG
EASTON         MOCLDY    27  16  63 CALM      30.04
PATUXENT       CLOUDY    27  17  66 SW5       30.01S WCI  22
OCEAN CITY     LGT SNOW  24  20  84 W5        30.02S FOG     WCI  18
WALLOPS ISLAND LGT SNOW  25  21  85 NW3       30.02R FOG
CAMBRIDGE      CLOUDY    27  16  63 CALM      30.01S
SALISBURY      CLOUDY    24  17  74 NW3       30.01S

$$
PAZ001-021-NYZ056-072-MDZ011-DCZ001-130300-
OTHER NEARBY LOCATIONS

CITY           SKY/WX    TMP DP  RH WIND       PRES   REMARKS
HARRISBURG     LGT SNOW  22  17  81 W6        29.98S WCI  14
STATE COLLEGE  CLOUDY    16  12  86 SW8       29.89F WCI   5
WILLIAMSPORT   FLURRIES  20  13  74 CALM      29.93F
BINGHAMTON     CLOUDY    13   8  81 SW7       29.79F WCI   3
NEW YORK CITY  CLOUDY    23   4  44 VRB3      29.98F
BALTIMORE      CLOUDY    24  15  68 CALM      30.00S
WASHINGTON DC  CLOUDY    28  13  53 S6        30.01F WCI  22

$$



USA.gov is the U.S. government's official web portal to all federal, state and local government web resources and services.